Content
SEND FEEDBACK

Daily
Averages
Monthly
Summary
United States of America

JAMESTOWN, NEW YORK


Home > North America > United States > New York
Elevation: 1725 feet     Latitude: 42 09N     Longitude: 079 15W

WEATHER
 
SELECT A DAY
Number of Records: 352,001;   Date Range: 1/1/95 - 10/30/14
 
SHARE

PRINT THIS DATA

[ ← Previous Day ]
WEATHER ALMANAC - FEBRUARY 18, 2013
[ Next Day → ]
[ °C ]   °F
Weather ElementAverageHighLow
Temperature22.3 °F35.6 °F (9:55 pm)6.8 °F (6:15 am)
Dewpoint9.6 °F21.2 °F (10:55 pm)1.4 °F (6:15 am)
Humidity60.8 %92 % (5:35 am)38 % (3:35 pm)
Barometer30.06 in30.18 in (5:55 am)29.85 in (11:55 pm)
Wind Speed9.2 mph15 mph (7:35 pm)
Wind Gust21.9 mph (4:15 pm)
Weather ElementAverage
Visibility9.9 mi
Wind DirectionSSW (204.8 °)

Weather ElementTotal
Precipitation---
Heating Degree Days43.8 (Base 65)
Averaged from 71 records on February 18, 2013
WEATHER CONDITIONS BREAKOUT
WIND DIRECTION BREAKOUT
WEATHER BY HOUR - FEBRUARY 18, 2013
[ °C ]   °F
Local TimeTemperatureDewpointHumidityBarometerVisibilityWind DirectionWind SpeedGust SpeedPrecipitationEventsConditions
12:35 AM12.2 °F6.8 °F79 %30.13 in10.0 miNW (320°)4.6 mphOvercast
12:55 AM12.2 °F6.8 °F79 %30.13 in8.0 miNW (310°)4.6 mphOvercast
1:15 AM12.2 °F6.8 °F79 %30.13 in10.0 miNW (310°)4.6 mphOvercast
1:35 AM12.2 °F6.8 °F79 %30.13 in10.0 miWNW (300°)4.6 mphOvercast
1:55 AM12.2 °F5.0 °F73 %30.14 in10.0 miWNW (290°)4.6 mphOvercast
2:15 AM12.2 °F6.8 °F79 %30.14 in8.0 miWest (260°)4.6 mphOvercast
2:35 AM12.2 °F6.8 °F79 %30.14 in9.0 miWest (270°)4.6 mphOvercast
2:55 AM12.2 °F5.0 °F73 %30.14 in10.0 miWest (280°)5.8 mphOvercast
3:15 AM12.2 °F3.2 °F67 %30.14 in10.0 miWNW (300°)6.9 mphMostly Cloudy
3:35 AM12.2 °F5.0 °F73 %30.15 in10.0 miWNW (300°)9.2 mphOvercast
3:55 AM12.2 °F3.2 °F67 %30.16 in10.0 miWest (280°)4.6 mphOvercast
4:15 AM12.2 °F3.2 °F67 %30.16 in10.0 miWest (270°)3.5 mphOvercast
4:35 AM10.4 °F6.8 °F85 %30.16 in10.0 miSW (230°)3.5 mphOvercast
4:55 AM10.4 °F5.0 °F79 %30.16 in10.0 miSW (220°)4.6 mphOvercast
5:15 AM10.4 °F6.8 °F85 %30.17 in10.0 miSW (230°)5.8 mphMostly Cloudy
5:35 AM8.6 °F6.8 °F92 %30.17 in10.0 miSW (230°)5.8 mphPartly Cloudy
5:55 AM8.6 °F3.2 °F79 %30.18 in10.0 miSW (230°)8.1 mphClear
6:15 AM6.8 °F1.4 °F79 %30.18 in10.0 miSW (230°)6.9 mphPartly Cloudy
6:35 AM6.8 °F1.4 °F79 %30.18 in10.0 miSW (230°)6.9 mphScattered Clouds
6:55 AM6.8 °F3.2 °F85 %30.18 in10.0 miSW (220°)8.1 mphScattered Clouds
7:15 AM6.8 °F1.4 °F79 %30.18 in10.0 miSW (220°)6.9 mphClear
7:35 AM6.8 °F1.4 °F79 %30.18 in10.0 miSW (230°)6.9 mphClear
7:55 AM6.8 °F1.4 °F79 %30.18 in10.0 miSW (230°)6.9 mphClear
8:15 AM6.8 °F5.0 °F92 %30.17 in10.0 miSSW (200°)3.5 mphClear
8:35 AM8.6 °F3.2 °F79 %30.18 in10.0 miSSE (160°)4.6 mphClear
8:55 AM10.4 °F5.0 °F79 %30.18 in10.0 miSouth (170°)4.6 mphClear
9:15 AM12.2 °F5.0 °F73 %30.18 in10.0 miSSW (200°)9.2 mphClear
9:35 AM14.0 °F6.8 °F73 %30.18 in10.0 miSW (220°)6.9 mphClear
9:55 AM15.8 °F6.8 °F68 %30.17 in10.0 miSouth (170°)4.6 mphClear
10:15 AM17.6 °F3.2 °F53 %30.17 in10.0 miSouth (180°)5.8 mphClear
10:35 AM17.6 °F6.8 °F63 %30.16 in10.0 miSSE (150°)8.1 mphClear
10:55 AM17.6 °F6.8 °F63 %30.15 in10.0 miSSE (160°)6.9 mphClear
11:15 AM19.4 °F6.8 °F58 %30.14 in10.0 miSSE (160°)9.2 mphClear
11:35 AM21.2 °F8.6 °F58 %30.13 in10.0 miSSE (160°)9.2 mphClear
11:55 AM21.2 °F8.6 °F58 %30.12 in10.0 miSouth (170°)9.2 mph16.1 mphPartly Cloudy
12:15 PM24.8 °F8.6 °F50 %30.12 in10.0 miSouth (170°)12.7 mph17.3 mphScattered Clouds
12:35 PM24.8 °F8.6 °F50 %30.11 in10.0 miSouth (170°)10.4 mphPartly Cloudy
12:55 PM26.6 °F10.4 °F51 %30.09 in10.0 miSSW (200°)9.2 mphPartly Cloudy
1:15 PM26.6 °F10.4 °F51 %30.09 in10.0 miSouth (170°)9.2 mphPartly Cloudy
1:35 PM26.6 °F10.4 °F51 %30.07 in10.0 miSouth (180°)11.5 mphMostly Cloudy
1:55 PM28.4 °F10.4 °F47 %30.06 in10.0 miSouth (170°)13.8 mphMostly Cloudy
2:15 PM30.2 °F10.4 °F44 %30.05 in10.0 miSouth (180°)11.5 mphPartly Cloudy
2:35 PM30.2 °F10.4 °F44 %30.03 in10.0 miSSE (160°)11.5 mph17.3 mphClear
2:55 PM30.2 °F10.4 °F44 %30.03 in10.0 miSouth (170°)9.2 mphClear
3:15 PM32.0 °F10.4 °F41 %30.02 in10.0 miSouth (170°)12.7 mph17.3 mphClear
3:35 PM33.8 °F10.4 °F38 %30.01 in10.0 miSouth (170°)12.7 mph18.4 mphClear
3:55 PM33.8 °F10.4 °F38 %30.01 in10.0 miSouth (170°)13.8 mphClear
4:15 PM33.8 °F10.4 °F38 %30.01 in10.0 miSouth (180°)13.8 mph21.9 mphClear
4:35 PM33.8 °F10.4 °F38 %29.99 in10.0 miSouth (180°)11.5 mphScattered Clouds
4:55 PM33.8 °F10.4 °F38 %29.98 in10.0 miSouth (170°)10.4 mphMostly Cloudy
5:15 PM33.8 °F12.2 °F41 %29.98 in10.0 miSouth (180°)11.5 mphPartly Cloudy
5:35 PM33.8 °F12.2 °F41 %29.97 in10.0 miSouth (170°)11.5 mph16.1 mphClear
5:55 PM32.0 °F12.2 °F44 %29.97 in10.0 miSouth (180°)13.8 mph18.4 mphClear
6:15 PM33.8 °F14.0 °F44 %29.97 in10.0 miSouth (180°)12.7 mph18.4 mphClear
6:35 PM32.0 °F14.0 °F48 %29.96 in10.0 miSouth (180°)11.5 mphClear
6:55 PM32.0 °F14.0 °F48 %29.95 in10.0 miSouth (180°)13.8 mphClear
7:15 PM32.0 °F15.8 °F51 %29.94 in10.0 miSouth (180°)13.8 mph21.9 mphClear
7:35 PM32.0 °F15.8 °F51 %29.93 in10.0 miSouth (180°)15.0 mphClear
7:55 PM33.8 °F15.8 °F48 %29.92 in10.0 miSouth (180°)13.8 mph19.6 mphClear
8:15 PM33.8 °F15.8 °F48 %29.92 in10.0 miSouth (190°)12.7 mph19.6 mphClear
8:35 PM33.8 °F15.8 °F48 %29.91 in10.0 miSouth (190°)15.0 mphClear
8:55 PM33.8 °F15.8 °F48 %29.91 in10.0 miSouth (190°)13.8 mphClear
9:15 PM33.8 °F17.6 °F52 %29.90 in10.0 miSouth (190°)12.7 mphClear
9:35 PM33.8 °F17.6 °F52 %29.90 in10.0 miSouth (190°)12.7 mphClear
9:55 PM35.6 °F17.6 °F48 %29.90 in10.0 miSouth (190°)12.7 mphMostly Cloudy
10:15 PM35.6 °F19.4 °F52 %29.89 in10.0 miSouth (190°)10.4 mph17.3 mphOvercast
10:35 PM35.6 °F19.4 °F52 %29.87 in10.0 miSouth (180°)11.5 mphOvercast
10:55 PM35.6 °F21.2 °F56 %29.86 in10.0 miSouth (180°)10.4 mphOvercast
11:15 PM35.6 °F21.2 °F56 %29.86 in10.0 miSouth (180°)12.7 mphOvercast
11:35 PM35.6 °F21.2 °F56 %29.86 in10.0 miSouth (180°)12.7 mphOvercast
11:55 PM35.6 °F21.2 °F56 %29.85 in10.0 miSouth (180°)11.5 mphOvercast
Hourly data recorded from KJHW, located miles away from Jamestown, New York







STORIES FROM OUR PARTNERS